Location: Isola Pescaroli
(45.0500°N, 10.1667°E)
Time: 19:53:47
(UTC+00:00)

SAR-Lupe-1 - Pass Details

Date: 03 March 2021
Orbit: 482 x 483 km, 98.2° (Epoch: 30 March)

Event Time Altitude Azimuth Distance (km) Brightness Sun altitude
Rises 18:24:50 0° 11° (N) 2,558 7.7 -14.1°
Reaches altitude 10° 18:26:55 10° 9° (N) 1,673 6.8 -14.4°
Maximum altitude 18:30:29 69° 286° (WNW) 522 4.4 -15.1°
Drops below altitude 10° 18:34:01 10° 203° (SSW) 1,659 7.0 -15.7°
Sets 18:36:05 0° 201° (SSW) 2,534 7.9 -16.1°
